Flag for Norway Weather past 2 weeks in Bardufoss, Norway

Now
28 °F

Scattered showers. Partly cloudy.


Feels Like: 28 °F
Forecast: 22 / 35 °F
Wind: 1 mph from North

Location: Bardufoss

Current Time: Apr 2, 2015 at 5:38:17 AM

Latest Report: Apr 2, 2015 at 4:50 AM


Visibility: N/A

Pressure: 29.30 "Hg

Humidity: 100%

Dew point: 28 °F

Location of BardufossLocation

Historic Weather in Bardufoss — Graph

°F

Bardufoss temperature yesterday

Maximum temperature yesterday: 37 °F (at 12:20 PM)
Minimum temperature yesterday: 12 °F (at 6:20 AM)
Average temperature yesterday: 29 °F

Past Weeks' High & Low Weather Summary

 TemperatureHumidityPressure
High46 °F (Mar 18, 2:20 PM)100% (Mar 23, 3:50 PM)30.45 "Hg (Mar 23, 3:50 PM)
Low5 °F (Mar 26, 11:50 PM)31% (Mar 24, 3:50 PM)28.91 "Hg (Mar 30, 4:50 AM)
Average30 °F71%29.60 "Hg
* Reported Mar 18 3:50 AM — Apr 2 4:20 AM, Bardufoss, Weather by CustomWeather, © 2015

Note: Actual official high and low records may vary slightly from our data, if they occured in-between our weather recording intervals... More about our weather records

Advertising

Bardufoss weather history for previous 24 hours

 ConditionsComfort  
Time TempWeatherWind HumidityBarometerVisibility
4:20 AM
Thu, Apr 2
30 °FSnow flurries. Ice fog.1 mph93%29.27 "Hg4 mi
3:50 AM30 °FSnow flurries. Partly cloudy.3 mph93%29.27 "HgN/A
3:20 AM30 °FSnow flurries. Partly cloudy.No wind93%29.27 "Hg5 mi
2:50 AM30 °FSnow. Partly cloudy.2 mph93%29.27 "HgN/A
1:50 AM30 °FScattered showers. Partly cloudy.3 mph93%29.24 "HgN/A
12:50 AM30 °FSnow flurries. Partly cloudy.5 mph93%29.24 "Hg4 mi
11:50 PM
Wed, Apr 1
30 °FScattered showers. Partly cloudy.5 mph93%29.21 "HgN/A
10:50 PM32 °FSnow flurries. Fog.6 mph93%29.18 "Hg4 mi
9:50 PM32 °FScattered showers. Partly cloudy.3 mph93%29.18 "HgN/A
8:50 PM32 °FSnow flurries. Fog.2 mph93%29.15 "Hg2 mi
7:50 PM32 °FSnow flurries. Partly sunny.9 mph87%29.12 "Hg6 mi
7:20 PM34 °FSnow. Partly sunny.3 mph75%29.12 "HgN/A
6:50 PM36 °FSnow flurries. Partly sunny.6 mph70%29.12 "HgN/A
6:20 PM36 °FScattered showers. Partly sunny.5 mph65%29.12 "HgN/A
5:50 PM36 °FScattered showers. Partly sunny.7 mph65%29.09 "HgN/A
5:20 PM36 °FPartly sunny.6 mph60%29.09 "HgN/A
4:50 PM37 °FPartly sunny.6 mph56%29.09 "HgN/A
4:20 PM37 °FPartly sunny.6 mph56%29.06 "HgN/A
3:50 PM37 °FPartly sunny.6 mph56%29.06 "HgN/A
3:20 PM37 °FPartly sunny.5 mph56%29.06 "HgN/A
2:50 PM37 °FPartly sunny.5 mph52%29.06 "HgN/A
2:20 PM37 °FPartly sunny.6 mph56%29.06 "HgN/A
1:50 PM37 °FPartly sunny.No wind56%29.03 "HgN/A
1:20 PM37 °FPartly sunny.1 mph56%29.03 "HgN/A
12:50 PM36 °FPartly sunny.2 mph60%29.03 "HgN/A
12:20 PM37 °FPartly sunny.2 mph56%29.03 "HgN/A
11:50 AM36 °FPartly sunny.2 mph56%29.00 "HgN/A
11:20 AM34 °FBroken clouds.2 mph65%29.00 "HgN/A
10:50 AM36 °FScattered clouds.2 mph70%29.00 "HgN/A
10:20 AM30 °FBroken clouds.No wind86%28.97 "HgN/A
9:50 AM27 °FBroken clouds.1 mph86%28.97 "HgN/A
9:20 AM27 °FPartly sunny.No wind86%28.97 "HgN/A
8:50 AM23 °FScattered clouds.2 mph86%28.97 "HgN/A
8:20 AM19 °FScattered clouds.1 mph86%28.97 "HgN/A
7:50 AM18 °FPassing clouds.1 mph86%28.97 "HgN/A
7:20 AM14 °FPassing clouds.2 mph92%28.97 "HgN/A
6:50 AM12 °FPassing clouds.1 mph92%28.97 "HgN/A
6:20 AM12 °FPassing clouds.1 mph85%28.97 "HgN/A
5:50 AM14 °FPassing clouds.No wind92%28.94 "HgN/A
5:20 AM14 °FPassing clouds.1 mph92%28.94 "HgN/A
Weather by CustomWeather, © 2015

See weather overviewHow to use our weather pages